Weather History for Pensacola, FL

Change the Weather History Date:

Wednesday, November 21, 2012

  Actual Average Record
Temperature  
Mean Temperature 62 °F 59 °F  
Max Temperature 76 °F 69 °F 84 °F (1994)
Min Temperature 47 °F 50 °F 27 °F (1937)
Degree Days  
Heating Degree Days 3 7  
Month to date heating degree days 111 100  
Since 1 July heating degree days 140 138  
Cooling Degree Days 0 1  
Month to date cooling degree days 25 37  
Year to date cooling degree days 3029 2587  
Growing Degree Days 10 (Base 50)    
Moisture  
Dew Point 48 °F    
Average Humidity 66    
Maximum Humidity 93    
Minimum Humidity 38    
Precipitation  
Precipitation 0.00 in 0.15 in 2.79 in (1947)
Month to date precipitation 0.34 3.34  
Year to date precipitation 63.65 59.33  
Snow  
Snow 0.00 in 0.00 in 0.00 in (2002)
Month to date snowfall 0.0 0.0  
Since 1 July snowfall 0.0 0.0  
Snow Depth 0.00 in    
Sea Level Pressure  
Sea Level Pressure 30.15 in    
Wind  
Wind Speed 5 mph (NNW)    
Max Wind Speed 13 mph    
Max Gust Speed 20 mph    
Visibility 10 miles    
Events      
T = Trace of Precipitation, MM = Missing Value Source: NWS Daily Summary

Daily Weather History Graph

Daily Weather History Graph

Search for Another Location

Airport:

Trip Planner

Search our weather history database for the weather conditions in past years. The results will help you decide how hot, cold, wet, or windy it might be!

Date:

Astronomy

Nov. 21, 2012 Rise Set
Actual Time 6:20 AM CST 4:49 PM CST
Civil Twilight 5:54 AM CST 5:14 PM CST
Nautical Twilight 5:25 AM CST 5:44 PM CST
Astronomical Twilight 4:56 AM CST 6:13 PM CST
Moon 12:42 PM CST (11/21) 12:04 AM CST (11/21)
Length of Visible Light 11h 20m
Length of Day
10h 28m
First Quarter, 62% of the Moon is Illuminated
Nov 21
First Quarter
Nov 28
Full
Dec 6
Last Quarter
Dec 13
New
Dec 19
First Quarter

Hourly Weather History & Observations

Time (CST) Temp. Dew Point Humidity Pressure Visibility Wind Dir Wind Speed Gust Speed Precip Events Conditions
12:53 AM 51.1 °F 46.9 °F 86% 30.13 in 10.0 mi NNW 4.6 mph - N/A   Clear
1:53 AM 50.0 °F 46.0 °F 86% 30.14 in 10.0 mi NW 3.5 mph - N/A   Clear
2:53 AM 48.9 °F 46.0 °F 90% 30.14 in 10.0 mi NW 4.6 mph - N/A   Clear
3:53 AM 46.9 °F 44.1 °F 90% 30.14 in 10.0 mi NNW 5.8 mph - N/A   Clear
4:53 AM 48.9 °F 45.0 °F 86% 30.14 in 10.0 mi NNW 4.6 mph - N/A   Clear
5:53 AM 48.0 °F 45.0 °F 89% 30.15 in 8.0 mi NNW 4.6 mph - N/A   Clear
6:53 AM 48.9 °F 46.0 °F 90% 30.18 in 5.0 mi NNW 4.6 mph - N/A   Clear
7:53 AM 57.0 °F 48.9 °F 74% 30.19 in 9.0 mi NNW 6.9 mph - N/A   Clear
8:53 AM 66.0 °F 46.9 °F 50% 30.20 in 10.0 mi North 4.6 mph - N/A   Clear
9:53 AM 68.0 °F 46.9 °F 47% 30.19 in 10.0 mi NNW 5.8 mph - N/A   Clear
10:53 AM 71.1 °F 48.0 °F 44% 30.17 in 10.0 mi NNW 8.1 mph - N/A   Clear
11:53 AM 73.0 °F 48.0 °F 41% 30.15 in 10.0 mi NNW 4.6 mph - N/A   Clear
12:53 PM 75.0 °F 48.0 °F 38% 30.13 in 10.0 mi NW 11.5 mph - N/A   Clear
1:53 PM 75.0 °F 48.0 °F 38% 30.11 in 10.0 mi NNW 9.2 mph - N/A   Partly Cloudy
2:53 PM 75.9 °F 48.0 °F 37% 30.11 in 10.0 mi NW 13.8 mph 18.4 mph N/A   Mostly Cloudy
3:53 PM 73.9 °F 48.0 °F 40% 30.11 in 10.0 mi North 5.8 mph - N/A   Clear
4:53 PM 68.0 °F 48.9 °F 50% 30.12 in 10.0 mi North 3.5 mph - N/A   Clear
5:53 PM 63.0 °F 48.9 °F 60% 30.14 in 10.0 mi Calm Calm - N/A   Clear
6:53 PM 60.1 °F 48.9 °F 67% 30.15 in 10.0 mi Calm Calm - N/A   Clear
7:53 PM 59.0 °F 50.0 °F 72% 30.17 in 10.0 mi Calm Calm - N/A   Clear
8:53 PM 57.9 °F 48.9 °F 72% 30.18 in 10.0 mi NW 3.5 mph - N/A   Clear
9:53 PM 57.0 °F 48.9 °F 74% 30.18 in 10.0 mi WNW 3.5 mph - N/A   Clear
10:53 PM 55.9 °F 48.9 °F 77% 30.18 in 10.0 mi Calm Calm - N/A   Clear
11:53 PM 54.0 °F 48.9 °F 83% 30.18 in 8.0 mi Calm Calm - N/A   Clear